Hourly Data Report for March 27, 2010

HALIFAX STANFIELD INT'L A
NOVA SCOTIA

44°52'48.060" N
63°30'00.050" W
145.40 m
8202250
71395
YHZ

Download Data

Hourly Data (March 2010)
Hourly Data Report for March 27, 2010
TIME
LST
Temp Definition
°C
Dew Point Definition
°C
Rel Hum Definition
%
Precip. Amount Definition
mm

Wind Dir Definition
10's deg

Wind Spd Definition
km/h
Visibility Definition
km
Stn Press Definition
kPa
Hmdx Definition


Wind Chill Definition


Weather Definition


00:00 -6.9 -12.7 63   35 24 24.1 99.77   -15 Mainly Clear
01:00 -7.6 -12.8 66   35 26 24.1 99.81   -16 Mainly Clear
02:00 -8.1 -13.4 66   35 30 24.1 99.87   -17 Clear
03:00 -8.4 -13.5 67   35 32 24.1 99.94   -18 Clear
04:00 -9.0 -13.1 72   34 24 24.1 100.06   -17 Clear
05:00 -9.5 -13.2 74   34 20 24.1 100.12   -17 Clear
06:00 -9.9 -13.1 77   33 28 24.1 100.20   -19 Mainly Clear
07:00 -9.7 -12.8 78   34 26 6.4 100.29   -19 Snow Showers
08:00 -9.4 -12.5 78   34 28 6.4 100.39   -18 Snow Showers
09:00 -8.3 -12.2 73   35 32 24.1 100.47   -18 Snow Showers
10:00 -6.6 -11.6 68   34 24 24.1 100.55   -14 Mainly Clear
11:00 -5.9 -12.2 61   35 37 24.1 100.57   -15 Mostly Cloudy
12:00 -5.1 -11.7 60   35 32 24.1 100.61   -13 Mostly Cloudy
13:00 -5.2 -11.4 62   36 35 24.1 100.61   -14 Mostly Cloudy
14:00 -4.6 -11.9 57   35 39 24.1 100.63   -13 Mainly Clear
15:00 -4.3 -12.2 54   36 30 24.1 100.67   -12 Mainly Clear
16:00 -4.7 -12.7 54   36 30 24.1 100.75   -13 Mainly Clear
17:00 -5.5 -13.1 55   36 26 24.1 100.82   -13 Mainly Clear
18:00 -6.5 -13.2 59   1 20 24.1 100.94   -13 Mainly Clear
19:00 -7.6 -14.1 60   36 17 24.1 101.03   -14 Clear
20:00 -8.4 -13.5 67   36 11 24.1 101.17   -14 Clear
21:00 -9.2 -13.0 74   1 9 24.1 101.19   -14 Clear
22:00 -10.0 -13.4 76   2 6 24.1 101.24   -14 Clear
23:00 -10.4 -13.6 77   34 4 24.1 101.26   -13 Clear

Notes on Data Quality.

Legend

  • E = Estimated
  • M = Missing
  • NA = Not Available*
  • [empty] = Indicates an unobserved value
Date modified: